TimeFrame on Redefined Productions
Outwar Torax TimeFrame

Torax TimeFrame

96 Gods Updated: 2019-07-22 11:38:56
NameTime LeftWindow Opens
Old World Drake45d 19:472019-06-07 11:46:00
Skybrine The Inescapable2d 16:472019-07-20 14:46:00
Felroc, Overseer of Hellfire2d 03:312019-07-21 04:02:00
Balerion, Dragon of Dread1d 21:312019-07-21 10:02:00
Grivvek, Protector of the Brood1d 13:402019-07-21 17:53:00
Tsort1d 08:392019-07-21 22:54:00
Ormsul the Putrid1d 06:022019-07-22 01:31:00
Crantos, Defender of Ultimation0d 21:402019-07-22 09:53:00
Amalgamated Apparition0d 20:182019-07-22 11:15:00
Garland, The Lord Keeper0d 18:012019-07-22 13:32:00
Lord Suka0d 13:502019-07-22 17:43:00
Pinosis0d 13:142019-07-22 18:19:00
Zertan, The Collector0d 12:532019-07-22 18:40:00
Great Lord Ganeshan0d 11:012019-07-22 20:32:00
Crolvak, the Fire Master0d 10:492019-07-22 20:44:00
Nessam0d 10:372019-07-22 20:56:00
Kretok, Descendant of Nature0d 07:352019-07-22 23:58:00
Ebliss, Fallen Angel of Despair0d 07:272019-07-23 00:06:00
Nar Zhul, Slayer of All0d 06:402019-07-23 00:53:00
Crane0d 06:232019-07-23 01:10:00
Akkel the Enflamed Warrior0d 05:072019-07-23 02:26:00
King Ashnar, Lord of the Unliving0d 03:102019-07-23 04:23:00
Threk, King of Lords0d 02:232019-07-23 05:10:00
Shadow0d 02:142019-07-23 05:19:00
Numerocure, The Black Messenger of Evil0d 01:582019-07-23 05:35:00
Quiver, The Renegade0d 00:132019-07-23 07:20:00
Dreg nor, Keeper of the Infernal Essence0d 00:132019-07-23 07:47:00
Volgan the Living Ironbark0d 00:142019-07-23 07:48:00
Gnorb0d 00:202019-07-23 07:54:00
Anguish0d 01:282019-07-23 09:02:00
Lord Narada0d 03:162019-07-23 10:50:00
Smoot the Yeti0d 04:082019-07-23 11:42:00
Ganja the Stone Golem0d 04:422019-07-23 12:16:00
Straya, the Underworld Ruler0d 05:002019-07-23 12:34:00
Samatha Dark-Soul0d 05:382019-07-23 13:12:00
Karvaz, Lord of Alsayic0d 06:122019-07-23 13:46:00
Freezebreed, The Frozen Manipulator0d 08:022019-07-23 15:36:00
Zikkir the Dark Archer0d 08:242019-07-23 15:58:00
Rotborn, Eater of the Dead0d 08:452019-07-23 16:19:00
Detox0d 10:102019-07-23 17:44:00
Sigil, Lich of Woe0d 10:102019-07-23 17:44:00
Jorun the Blazing Swordsman0d 11:252019-07-23 18:59:00
Lord Varan0d 11:422019-07-23 19:16:00
Viserion, the Necrodragon0d 11:472019-07-23 19:21:00
Sarcrina the Astral Priestess0d 12:242019-07-23 19:58:00
Baron Mu, Dark Rider of the Undead0d 13:072019-07-23 20:41:00
Skarthul the Avenged0d 13:422019-07-23 21:16:00
Murderface0d 13:582019-07-23 21:32:00
Traxodon the Plaguebringer0d 14:082019-07-23 21:42:00
Lord Xordam0d 17:032019-07-24 00:37:00
The Emerald Assassin0d 17:542019-07-24 01:28:00
Lacuste of the Swarm0d 20:302019-07-24 04:04:00
Lord Sibannac0d 21:372019-07-24 05:11:00
Archdevil Yirkon0d 22:582019-07-24 06:32:00
Ancient Magus Tarkin1d 00:172019-07-24 07:51:00
Esquin, the Kinetic Master1d 07:082019-07-24 14:42:00
Slashbrood, Devourer of the Blackness1d 09:402019-07-24 17:14:00
Lady Chaos, Queen of the Abyss1d 10:042019-07-24 17:38:00
Brutalitar, Lord of the Underworld1d 10:432019-07-24 18:17:00
Melt Bane, The Forbidden Demon Dragon1d 11:532019-07-24 19:27:00
Keeper of Nature1d 18:262019-07-25 02:00:00
Windstrike The Vile1d 20:282019-07-25 04:02:00
Bloodchill the Grizzly1d 21:092019-07-25 04:43:00
Lady Ariella1d 23:072019-07-25 06:41:00
Varsanor, Master of Darkness2d 01:572019-07-25 09:31:00
Raiyar, the Shadow Master2d 03:382019-07-25 11:12:00
Hackerphage, Protector of the Gateway2d 10:062019-07-25 17:40:00
Jazzmin, Maiden of Vitality2d 10:172019-07-25 17:51:00
Xynak, the Arcane Master2d 12:252019-07-25 19:59:00
Sylvanna TorLai2d 14:252019-07-25 21:59:00
Howldroid, Tormentor of the Pit2d 15:232019-07-25 22:57:00
Nayark the Mummified Sorcerer2d 18:122019-07-26 01:46:00
Q-SEC Commander2d 19:002019-07-26 02:34:00
Gorganus of the Wood2d 20:152019-07-26 03:49:00
Bolkor, the Holy Master2d 23:262019-07-26 07:00:00
Anvilfist3d 05:052019-07-26 12:39:00
Nafir, God of Desolation3d 11:222019-07-26 18:56:00
Ag Nabak the Abomination3d 15:152019-07-26 22:49:00
Dexor, Victor of Veldara3d 18:032019-07-27 01:37:00
Emperor Neudeus, Controller of the Universe3d 21:032019-07-27 04:37:00
Kro Shuk, Doomslayer4d 08:372019-07-27 16:11:00
Dlanod, the Crazed Chancellor4d 09:002019-07-27 16:34:00
Shaik, Servant of Arkron94d 12:252019-04-19 19:08:00
Rook, Hand of Arkron94d 10:492019-04-19 20:44:00
Animated Captain45d 20:202019-06-07 11:13:00
Jade Dragonite45d 18:502019-06-07 12:43:00
Beast of Cards36d 16:392019-06-16 14:54:00
Noxious Slug35d 04:112019-06-18 03:22:00
Mistress of the Sword3d 09:292019-07-19 22:04:00
Vitkros, Hydra of the Deep2d 17:452019-07-20 13:48:00
Synge, The Red Dragon2d 17:082019-07-20 14:25:00
Terrance, Rebel of Rallis2d 06:012019-07-21 01:32:00
Wanhiroeaz the Devourer2d 05:172019-07-21 02:16:00
Rancid, Lord of Thugs1d 23:032019-07-21 08:30:00
Tylos, The Lord Master1d 11:422019-07-21 19:51:00
Hyrak, Bringer of Nightmares1d 11:322019-07-21 20:01:00